GW1126 Weather Reports


time (UTC)temp
F
wind
direction
speed
knots
gust
knots
rain 1hr
in
rain 24hr
in
rain mn
in
humidity
%
barometer
mb
20260504174734 69 48 5.2 7.8 0.00 0.00 0.00 42 1009.0
20260504174232 68 12 2.6 7.8 0.00 0.00 0.00 43 1009.1
20260504173727 67 6 2.6 5.2 0.00 0.00 0.00 44 1009.3
20260504173225 68 34 4.3 7.0 0.00 0.00 0.00 44 1009.3
20260504172721 68 35 2.6 4.3 0.00 0.00 0.00 43 1009.1
20260504172218 67 352 12.2 15.6 0.00 0.00 0.00 43 1009.4
20260504171714 67 15 5.2 7.0 0.00 0.00 0.00 43 1009.4
20260504171211 67 5 0.0 0.9 0.00 0.00 0.00 44 1009.4
20260504170708 67 5 9.6 12.2 0.00 0.00 0.00 41 1009.0
20260504170206 68 329 1.7 6.1 0.00 0.00 0.00 42 1008.8
20260504160124 71 181 0.0 0.0 0.00 0.00 0.00 40 1008.5
20260504151051 65 174 0.0 0.0 0.00 0.00 0.00 45 1008.8
20260504150549 65 143 0.0 0.0 0.00 0.00 0.00 46 1009.0
20260504141015 56 231 0.0 0.0 0.00 0.00 0.00 62 1008.9
20260504140511 55 229 0.0 0.0 0.00 0.00 0.00 62 1008.9
20260504130436 47 243 0.0 0.0 0.00 0.00 0.00 79 1008.9
20260504110322 43 140 0.0 0.0 0.00 0.00 0.00 84 1008.7
20260504100234 44 172 0.0 0.0 0.00 0.00 0.00 81 1008.8
20260504081628 48 145 0.0 0.0 0.00 0.00 0.00 76 1009.4
20260504081124 48 127 0.0 0.0 0.00 0.00 0.00 76 1009.5
20260504080621 48 148 0.0 0.0 0.00 0.00 0.00 75 1009.7
20260504080117 48 147 0.0 0.0 0.00 0.00 0.00 75 1009.6
20260504050433 57 156 0.0 0.0 0.00 0.00 0.00 54 1011.2
20260504045930 58 156 0.0 0.0 0.00 0.00 0.00 53 1011.5
20260504045426 58 157 0.0 0.0 0.00 0.00 0.00 52 1011.4
20260504044922 59 157 0.0 0.0 0.00 0.00 0.00 51 1011.4
20260504044420 59 151 0.0 0.0 0.00 0.00 0.00 50 1011.6
20260504043917 59 125 0.0 0.0 0.00 0.00 0.00 50 1011.4
20260504043414 59 113 0.0 0.0 0.00 0.00 0.00 51 1011.6
20260504042912 58 109 0.0 0.0 0.00 0.00 0.00 51 1012.0
20260504042408 58 29 0.0 0.0 0.00 0.00 0.00 52 1012.2
20260504041904 58 23 0.0 0.0 0.00 0.00 0.00 53 1012.3
20260504041401 58 88 0.0 0.0 0.00 0.00 0.00 52 1012.2
20260504040856 58 31 0.0 0.0 0.00 0.00 0.00 52 1012.2
20260504040354 58 47 0.0 0.0 0.00 0.00 0.00 52 1012.2
20260504035850 59 60 0.0 0.0 0.00 0.00 0.00 52 1011.9
20260504035348 59 98 0.0 0.0 0.00 0.00 0.00 52 1011.8
20260504034844 59 98 0.0 0.0 0.00 0.00 0.00 51 1011.9
20260504034342 60 97 0.0 0.0 0.00 0.00 0.00 50 1011.8
20260504033839 60 115 0.0 0.0 0.00 0.00 0.00 50 1011.8
20260504033337 60 136 0.0 0.0 0.00 0.00 0.00 49 1011.9
20260504032833 60 95 0.0 0.0 0.00 0.00 0.00 49 1011.8
20260504032330 61 139 0.0 0.0 0.00 0.00 0.00 48 1011.6
20260504031827 61 140 0.0 0.0 0.00 0.00 0.00 47 1011.5
20260504031324 62 140 0.0 0.0 0.00 0.00 0.00 45 1011.5
20260504030820 62 140 0.0 0.0 0.00 0.00 0.00 46 1011.4
20260504030318 62 140 0.0 0.0 0.00 0.00 0.00 44 1011.4
20260504025814 62 140 0.0 0.0 0.00 0.00 0.00 45 1011.4
20260504025311 63 141 0.0 0.0 0.00 0.00 0.00 44 1011.4
20260504024808 64 141 0.0 0.0 0.00 0.00 0.00 43 1011.3
20260504024304 64 132 0.0 0.0 0.00 0.00 0.00 43 1011.1
20260504023801 64 133 0.0 0.0 0.00 0.00 0.00 43 1011.1
20260504023257 65 132 0.0 0.0 0.00 0.00 0.00 41 1011.1
20260504022754 66 124 0.0 0.0 0.00 0.00 0.00 40 1011.0
20260504022250 66 133 0.0 0.0 0.00 0.00 0.00 40 1011.1
20260504021747 66 117 0.0 0.0 0.00 0.00 0.00 39 1010.9
20260504021244 67 118 0.0 0.0 0.00 0.00 0.00 39 1010.9
20260504020741 67 144 0.0 0.0 0.00 0.00 0.00 39 1010.8
20260504020238 67 138 0.0 0.0 0.00 0.00 0.00 38 1010.7
20260504015734 68 132 0.0 0.0 0.00 0.00 0.00 38 1010.9
20260504015231 68 124 0.0 0.0 0.00 0.00 0.00 37 1010.8
20260504014726 68 120 0.0 0.0 0.00 0.00 0.00 36 1010.8
20260504014223 69 134 0.0 0.0 0.00 0.00 0.00 36 1011.1
20260504013721 69 111 0.0 0.0 0.00 0.00 0.00 35 1010.9
20260504013218 70 141 0.0 0.0 0.00 0.00 0.00 34 1011.3
20260504012714 70 126 0.0 0.0 0.00 0.00 0.00 33 1010.9
20260504012213 71 144 0.0 0.0 0.00 0.00 0.00 33 1011.2
20260504011709 71 95 0.0 0.0 0.00 0.00 0.00 33 1011.2
20260504011206 71 115 0.0 0.0 0.00 0.00 0.00 32 1011.1
20260504010702 71 122 0.0 0.0 0.00 0.00 0.00 33 1011.1
20260504010157 72 127 0.0 0.0 0.00 0.00 0.00 31 1011.3
20260504005654 72 141 0.0 0.9 0.00 0.00 0.00 31 1011.1
20260504005151 72 129 0.0 0.0 0.00 0.00 0.00 31 1011.5
20260504004649 72 128 0.0 0.0 0.00 0.00 0.00 30 1011.3
20260504004146 73 125 0.0 0.0 0.00 0.00 0.00 30 1011.5
20260504003642 73 118 0.0 0.0 0.00 0.00 0.00 30 1011.4
20260504003139 73 134 0.0 0.0 0.00 0.00 0.00 30 1011.5
20260504002636 73 117 0.0 0.0 0.00 0.00 0.00 30 1011.8
20260504002134 73 148 0.0 0.0 0.00 0.00 0.00 31 1011.6
20260504001632 73 141 0.0 0.0 0.00 0.00 0.00 31 1011.8
20260504001127 74 156 1.7 2.6 0.00 0.00 0.00 30 1011.9
20260504000625 73 185 0.0 0.0 0.00 0.00 0.00 30 1011.9
20260504000122 74 127 0.0 0.0 0.00 0.00 0.00 30 1011.9
20260503235620 74 189 0.0 0.0 0.00 0.00 0.00 29 1012.1
20260503235116 74 189 0.0 0.0 0.00 0.00 0.00 29 1012.3
20260503234615 73 180 0.0 0.0 0.00 0.00 0.00 30 1012.2
20260503234112 74 179 3.5 5.2 0.00 0.00 0.00 29 1012.4
20260503233609 75 155 0.0 0.0 0.00 0.00 0.00 28 1012.2
20260503233104 75 121 0.0 0.0 0.00 0.00 0.00 28 1012.3
20260503232601 75 189 0.0 0.0 0.00 0.00 0.00 28 1012.3
20260503232059 75 188 0.0 0.0 0.00 0.00 0.00 29 1012.5
20260503231556 73 119 0.0 0.0 0.00 0.00 0.00 29 1012.4
20260503231053 74 13 0.0 0.0 0.00 0.00 0.00 29 1012.3
20260503230549 75 54 0.0 0.0 0.00 0.00 0.00 29 1012.6
20260503230047 74 96 0.0 0.0 0.00 0.00 0.00 29 1012.6
20260503225544 73 30 0.0 0.0 0.00 0.00 0.00 29 1012.7
20260503225039 74 349 0.0 0.0 0.00 0.00 0.00 29 1012.6
20260503224537 74 37 0.0 0.0 0.00 0.00 0.00 29 1012.5
20260503224035 75 112 0.0 0.0 0.00 0.00 0.00 28 1012.9
20260503223533 75 53 0.9 0.9 0.00 0.00 0.00 28 1012.8
20260503223028 75 159 0.0 0.0 0.00 0.00 0.00 28 1013.1
20260503222526 76 344 0.0 0.0 0.00 0.00 0.00 27 1013.2
20260503222024 75 297 0.0 0.0 0.00 0.00 0.00 28 1013.2
20260503221522 75 294 0.0 0.0 0.00 0.00 0.00 29 1013.1
20260503221019 74 337 1.7 2.6 0.00 0.00 0.00 30 1013.4
20260503220515 74 20 1.7 2.6 0.00 0.00 0.00 29 1013.3
20260503220012 74 358 0.0 0.0 0.00 0.00 0.00 31 1013.4
20260503215509 74 249 0.0 0.0 0.00 0.00 0.00 29 1013.5
20260503215006 75 70 0.0 0.0 0.00 0.00 0.00 30 1013.4
20260503214504 74 343 0.0 0.0 0.00 0.00 0.00 29 1013.5
20260503214001 74 9 1.7 2.6 0.00 0.00 0.00 30 1013.8
20260503213459 73 340 0.0 0.0 0.00 0.00 0.00 32 1014.0
20260503212955 74 85 0.0 0.0 0.00 0.00 0.00 30 1013.9
20260503212453 74 67 0.9 2.6 0.00 0.00 0.00 30 1014.0
20260503211950 74 1 0.0 0.0 0.00 0.00 0.00 30 1013.8
20260503211447 76 306 0.0 0.0 0.00 0.00 0.00 29 1013.8
20260503210942 74 229 0.0 0.0 0.00 0.00 0.00 28 1014.4
20260503210439 74 18 0.0 0.0 0.00 0.00 0.00 29 1014.3
20260503205934 74 135 0.0 0.0 0.00 0.00 0.00 29 1014.1
20260503205432 73 8 0.0 0.0 0.00 0.00 0.00 30 1014.3
20260503204927 73 288 0.0 0.0 0.00 0.00 0.00 30 1014.4
20260503204425 74 77 0.0 0.9 0.00 0.00 0.00 29 1014.4
20260503203922 75 29 0.0 0.0 0.00 0.00 0.00 30 1014.4
20260503203419 75 83 0.0 0.0 0.00 0.00 0.00 29 1014.5
20260503202916 74 13 2.6 4.3 0.00 0.00 0.00 29 1014.7
20260503202414 73 117 0.0 0.0 0.00 0.00 0.00 31 1014.7
20260503201913 74 344 0.0 0.0 0.00 0.00 0.00 30 1014.7
20260503201409 73 153 0.0 0.9 0.00 0.00 0.00 30 1014.8
20260503200907 75 96 2.6 5.2 0.00 0.00 0.00 30 1014.6
20260503200403 74 96 0.0 0.0 0.00 0.00 0.00 30 1014.7
20260503195900 74 93 0.0 0.0 0.00 0.00 0.00 30 1014.7
20260503195356 73 68 0.0 0.0 0.00 0.00 0.00 29 1014.9
20260503194853 73 51 0.0 0.0 0.00 0.00 0.00 30 1015.1
20260503194350 72 138 0.0 0.0 0.00 0.00 0.00 30 1015.1
20260503193846 72 38 0.0 0.0 0.00 0.00 0.00 30 1014.8
20260503193341 73 152 0.0 0.0 0.00 0.00 0.00 30 1015.0
20260503192838 73 165 3.5 7.8 0.00 0.00 0.00 31 1015.0
20260503192333 72 69 3.5 6.1 0.00 0.00 0.00 32 1015.2
20260503191830 73 136 0.9 2.6 0.00 0.00 0.00 30 1015.0
20260503191327 73 46 0.0 0.9 0.00 0.00 0.00 31 1015.1
20260503190824 73 107 0.0 0.0 0.00 0.00 0.00 31 1015.2
20260503190321 74 68 0.0 0.0 0.00 0.00 0.00 31 1015.4
20260503185818 73 144 0.0 0.0 0.00 0.00 0.00 30 1015.6
20260503185313 73 111 1.7 4.3 0.00 0.00 0.00 30 1015.6
20260503184808 72 39 2.6 5.2 0.00 0.00 0.00 31 1015.3
20260503184305 73 213 0.0 0.0 0.00 0.00 0.00 30 1015.6
20260503183800 72 19 0.9 1.7 0.00 0.00 0.00 32 1015.9
20260503183258 72 109 0.0 0.0 0.00 0.00 0.00 31 1015.8
20260503182755 71 65 0.0 0.0 0.00 0.00 0.00 31 1016.0
20260503182254 71 63 0.0 0.0 0.00 0.00 0.00 33 1016.1
20260503181750 71 126 4.3 5.2 0.00 0.00 0.00 31 1016.0
20260503181248 72 18 3.5 5.2 0.00 0.00 0.00 31 1016.2
20260503180744 72 121 0.0 0.9 0.00 0.00 0.00 32 1016.1
20260503180242 71 97 0.9 1.7 0.00 0.00 0.00 32 1016.2
20260503175738 72 115 0.9 2.6 0.00 0.00 0.00 31 1016.5
20260503175236 71 70 0.0 0.9 0.00 0.00 0.00 31 1016.6